Time,TemperatureF,DewpointF,PressureIn,WindDirection,WindDirectionDegrees,WindSpeedMPH,WindSpeedGustMPH,Humidity,HourlyPrecipIn,Conditions,Clouds,dailyrainin,SoftwareType,DateUTC
2013-08-05 00:12:00,71.0,-99.9,-100.00,SSW,210,3.0,-999.0,-999,0.00,,,0.00,,2013-08-05 05:12:00,
2013-08-05 00:22:00,71.0,-99.9,-100.00,SSW,210,3.0,-999.0,-999,0.00,,,0.00,,2013-08-05 05:22:00,
2013-08-05 00:32:00,71.0,-99.9,-100.00,South,171,2.0,-999.0,-999,0.00,,,0.00,,2013-08-05 05:32:00,
2013-08-05 00:43:00,71.0,-99.9,-100.00,South,171,2.0,-999.0,-999,0.00,,,0.00,,2013-08-05 05:43:00,
2013-08-05 00:53:00,71.0,-99.9,-100.00,South,171,2.0,-999.0,-999,0.00,,,0.00,,2013-08-05 05:53:00,
2013-08-05 01:02:00,70.0,-99.9,-100.00,SSW,199,1.0,-999.0,-999,0.00,,,0.00,,2013-08-05 06:02:00,
2013-08-05 01:12:00,70.0,-99.9,-100.00,SSW,199,1.0,-999.0,-999,0.00,,,0.00,,2013-08-05 06:12:00,
2013-08-05 01:22:00,70.0,-99.9,-100.00,SSW,199,1.0,-999.0,-999,0.00,,,0.00,,2013-08-05 06:22:00,
2013-08-05 01:32:00,70.0,-99.9,-100.00,SSW,198,1.0,-999.0,-999,0.00,,,0.00,,2013-08-05 06:32:00,
2013-08-05 01:43:00,70.0,-99.9,-100.00,SSW,198,1.0,-999.0,-999,0.00,,,0.00,,2013-08-05 06:43:00,
2013-08-05 01:52:00,70.0,-99.9,-100.00,SSW,198,1.0,-999.0,-999,0.00,,,0.00,,2013-08-05 06:52:00,
2013-08-05 02:02:00,69.0,-99.9,-100.00,SW,226,2.0,-999.0,-999,0.00,,,0.00,,2013-08-05 07:02:00,
2013-08-05 02:12:00,69.0,-99.9,-100.00,SW,226,2.0,-999.0,-999,0.00,,,0.00,,2013-08-05 07:12:00,
2013-08-05 02:22:00,69.0,-99.9,-100.00,SW,226,2.0,-999.0,-999,0.00,,,0.00,,2013-08-05 07:22:00,
2013-08-05 02:33:00,69.0,-99.9,-100.00,South,185,2.0,-999.0,-999,0.00,,,0.00,,2013-08-05 07:33:00,
2013-08-05 02:43:00,69.0,-99.9,-100.00,South,185,2.0,-999.0,-999,0.00,,,0.00,,2013-08-05 07:43:00,
2013-08-05 02:53:00,69.0,-99.9,-100.00,South,185,2.0,-999.0,-999,0.00,,,0.00,,2013-08-05 07:53:00,
2013-08-05 03:12:00,70.0,-99.9,-100.00,SE,141,3.0,-999.0,-999,0.00,,,0.00,,2013-08-05 08:12:00,
2013-08-05 03:22:00,70.0,-99.9,-100.00,SE,141,3.0,-999.0,-999,0.00,,,0.00,,2013-08-05 08:22:00,
2013-08-05 03:53:00,69.0,-99.9,-100.00,SE,142,2.0,-999.0,-999,0.00,,,0.00,,2013-08-05 08:53:00,
2013-08-05 04:20:00,69.0,-99.9,-100.00,SE,146,3.0,-999.0,-999,0.00,,,0.00,,2013-08-05 09:20:00,
2013-08-05 04:29:00,69.0,-99.9,-100.00,SE,146,3.0,-999.0,-999,0.00,,,0.00,,2013-08-05 09:29:00,
2013-08-05 04:50:00,69.0,-99.9,-100.00,SSE,151,2.0,-999.0,-999,0.00,,,0.00,,2013-08-05 09:50:00,
2013-08-05 05:13:00,70.0,-99.9,-100.00,SSE,151,3.0,-999.0,-999,0.00,,,0.00,,2013-08-05 10:13:00,
2013-08-05 05:18:00,70.0,-99.9,-100.00,SSE,151,3.0,-999.0,-999,0.00,,,0.00,,2013-08-05 10:18:00,
2013-08-05 05:28:00,70.0,-99.9,-100.00,SSE,151,3.0,-999.0,-999,0.00,,,0.00,,2013-08-05 10:28:00,
2013-08-05 05:49:00,70.0,-99.9,-100.00,SE,125,2.0,-999.0,-999,0.00,,,0.00,,2013-08-05 10:49:00,
2013-08-05 06:12:00,70.0,-99.9,-100.00,SSE,152,2.0,-999.0,-999,0.00,,,0.00,,2013-08-05 11:12:00,
2013-08-05 06:38:00,69.0,-99.9,-100.00,SE,136,2.0,-999.0,-999,0.00,,,0.00,,2013-08-05 11:38:00,
2013-08-05 06:55:00,69.0,-99.9,-100.00,SE,136,2.0,-999.0,-999,0.00,,,0.00,,2013-08-05 11:55:00,
2013-08-05 07:00:00,71.0,-99.9,-100.00,ESE,117,3.0,-999.0,-999,0.00,,,0.00,,2013-08-05 12:00:00,
2013-08-05 07:17:00,70.0,-99.9,-100.00,SE,125,2.0,-999.0,-999,0.00,,,0.00,,2013-08-05 12:17:00,
2013-08-05 07:28:00,70.0,-99.9,-100.00,SE,125,2.0,-999.0,-999,0.00,,,0.00,,2013-08-05 12:28:00,
2013-08-05 07:30:00,71.0,-99.9,-100.00,ESE,115,5.0,-999.0,-999,0.00,,,0.00,,2013-08-05 12:30:00,
2013-08-05 07:34:00,71.0,-99.9,-100.00,ESE,117,3.0,-999.0,-999,0.00,,,0.00,,2013-08-05 12:34:00,
2013-08-05 07:54:00,71.0,-99.9,-100.00,ESE,117,3.0,-999.0,-999,0.00,,,0.00,,2013-08-05 12:54:00,
2013-08-05 08:14:00,71.0,-99.9,-100.00,ESE,115,5.0,-999.0,-999,0.00,,,0.00,,2013-08-05 13:14:00,
2013-08-05 08:30:00,72.0,-99.9,-100.00,SE,144,5.0,-999.0,-999,0.00,,,0.00,,2013-08-05 13:30:00,
2013-08-05 08:41:00,72.0,-99.9,-100.00,SE,145,5.0,-999.0,-999,0.00,,,0.00,,2013-08-05 13:41:00,
2013-08-05 08:49:00,72.0,-99.9,-100.00,SE,145,5.0,-999.0,-999,0.00,,,0.00,,2013-08-05 13:49:00,
2013-08-05 08:54:00,72.0,-99.9,-100.00,SE,145,5.0,-999.0,-999,0.00,,,0.00,,2013-08-05 13:54:00,
2013-08-05 09:17:00,72.0,-99.9,-100.00,SE,144,5.0,-999.0,-999,0.00,,,0.00,,2013-08-05 14:17:00,
2013-08-05 09:43:00,73.0,-99.9,-100.00,SE,133,8.0,-999.0,-999,0.00,,,0.00,,2013-08-05 14:43:00,
2013-08-05 09:51:00,73.0,-99.9,-100.00,SE,133,8.0,-999.0,-999,0.00,,,0.00,,2013-08-05 14:51:00,
2013-08-05 10:08:00,75.0,-99.9,-100.00,SE,142,6.0,-999.0,-999,0.00,,,0.00,,2013-08-05 15:08:00,
2013-08-05 10:18:00,75.0,-99.9,-100.00,SE,142,6.0,-999.0,-999,0.00,,,0.00,,2013-08-05 15:18:00,
2013-08-05 10:25:00,75.0,-99.9,-100.00,SE,142,6.0,-999.0,-999,0.00,,,0.00,,2013-08-05 15:25:00,
2013-08-05 11:00:00,75.0,-99.9,-100.00,SE,136,5.0,-999.0,-999,0.00,,,0.00,,2013-08-05 16:00:00,
2013-08-05 11:18:00,74.0,-99.9,-100.00,SE,138,3.0,-999.0,-999,0.00,,,0.00,,2013-08-05 16:18:00,
2013-08-05 11:28:00,74.0,-99.9,-100.00,SE,138,3.0,-999.0,-999,0.00,,,0.00,,2013-08-05 16:28:00,
2013-08-05 11:45:00,75.0,-99.9,-100.00,SE,136,5.0,-999.0,-999,0.00,,,0.00,,2013-08-05 16:45:00,
2013-08-05 12:00:00,76.0,-99.9,-100.00,SSE,148,5.0,-999.0,-999,0.00,,,0.00,,2013-08-05 17:00:00,
2013-08-05 12:10:00,77.0,-99.9,-100.00,SE,133,6.0,-999.0,-999,0.00,,,0.00,,2013-08-05 17:10:00,
2013-08-05 12:17:00,77.0,-99.9,-100.00,SE,133,6.0,-999.0,-999,0.00,,,0.00,,2013-08-05 17:17:00,
2013-08-05 12:22:00,77.0,-99.9,-100.00,SE,133,6.0,-999.0,-999,0.00,,,0.00,,2013-08-05 17:22:00,
2013-08-05 12:30:00,76.0,-99.9,-100.00,SE,137,4.0,-999.0,-999,0.00,,,0.00,,2013-08-05 17:30:00,
2013-08-05 12:40:00,76.0,-99.9,-100.00,SSE,148,5.0,-999.0,-999,0.00,,,0.00,,2013-08-05 17:40:00,
2013-08-05 12:50:00,76.0,-99.9,-100.00,SSE,148,5.0,-999.0,-999,0.00,,,0.00,,2013-08-05 17:50:00,
2013-08-05 13:08:00,76.0,-99.9,-100.00,SE,137,4.0,-999.0,-999,0.00,,,0.00,,2013-08-05 18:08:00,
2013-08-05 13:14:00,76.0,-99.9,-100.00,SE,137,4.0,-999.0,-999,0.00,,,0.00,,2013-08-05 18:14:00,
2013-08-05 13:27:00,76.0,-99.9,-100.00,SE,137,4.0,-999.0,-999,0.00,,,0.00,,2013-08-05 18:27:00,
2013-08-05 14:16:00,76.0,-99.9,-100.00,SE,136,4.0,-999.0,-999,0.00,,,0.00,,2013-08-05 19:16:00,
2013-08-05 14:28:00,76.0,-99.9,-100.00,SE,136,4.0,-999.0,-999,0.00,,,0.00,,2013-08-05 19:28:00,
2013-08-05 14:30:00,77.0,-99.9,-100.00,SE,129,4.0,-999.0,-999,0.00,,,0.00,,2013-08-05 19:30:00,
2013-08-05 14:39:00,77.0,-99.9,-100.00,SE,137,4.0,-999.0,-999,0.00,,,0.00,,2013-08-05 19:39:00,
2013-08-05 14:59:00,77.0,-99.9,-100.00,SE,137,4.0,-999.0,-999,0.00,,,0.00,,2013-08-05 19:59:00,
2013-08-05 15:00:00,77.0,-99.9,-100.00,ESE,123,5.0,-999.0,-999,0.00,,,0.00,,2013-08-05 20:00:00,
2013-08-05 15:15:00,77.0,-99.9,-100.00,SE,129,4.0,-999.0,-999,0.00,,,0.00,,2013-08-05 20:15:00,
2013-08-05 15:48:00,77.0,-99.9,-100.00,ESE,123,5.0,-999.0,-999,0.00,,,0.00,,2013-08-05 20:48:00,
2013-08-05 16:12:00,77.0,-99.9,-100.00,SE,142,4.0,-999.0,-999,0.00,,,0.00,,2013-08-05 21:12:00,
2013-08-05 16:20:00,77.0,-99.9,-100.00,SE,142,4.0,-999.0,-999,0.00,,,0.00,,2013-08-05 21:20:00,
2013-08-05 16:28:00,77.0,-99.9,-100.00,SE,142,4.0,-999.0,-999,0.00,,,0.00,,2013-08-05 21:28:00,
2013-08-05 16:48:00,77.0,-99.9,-100.00,SE,142,4.0,-999.0,-999,0.00,,,0.00,,2013-08-05 21:48:00,
2013-08-05 17:28:00,77.0,-99.9,-100.00,SE,140,5.0,-999.0,-999,0.00,,,0.00,,2013-08-05 22:28:00,
2013-08-05 17:38:00,77.0,-99.9,-100.00,SE,145,7.0,-999.0,-999,0.00,,,0.00,,2013-08-05 22:38:00,
2013-08-05 17:46:00,77.0,-99.9,-100.00,SE,145,7.0,-999.0,-999,0.00,,,0.00,,2013-08-05 22:46:00,
2013-08-05 17:54:00,77.0,-99.9,-100.00,SE,145,7.0,-999.0,-999,0.00,,,0.00,,2013-08-05 22:54:00,
2013-08-05 18:00:00,76.0,-99.9,-100.00,SE,139,9.0,-999.0,-999,0.00,,,0.00,,2013-08-05 23:00:00,
2013-08-05 18:18:00,77.0,-99.9,-100.00,SSE,147,7.0,-999.0,-999,0.00,,,0.00,,2013-08-05 23:18:00,
2013-08-05 18:29:00,77.0,-99.9,-100.00,SSE,147,7.0,-999.0,-999,0.00,,,0.00,,2013-08-05 23:29:00,
2013-08-05 18:46:00,76.0,-99.9,-100.00,SE,139,9.0,-999.0,-999,0.00,,,0.00,,2013-08-05 23:46:00,
2013-08-05 19:03:00,76.0,-99.9,-100.00,SE,144,7.0,-999.0,-999,0.00,,,0.00,,2013-08-06 00:03:00,
2013-08-05 19:15:00,76.0,-99.9,-100.00,SE,144,7.0,-999.0,-999,0.00,,,0.00,,2013-08-06 00:15:00,
2013-08-05 19:24:00,76.0,-99.9,-100.00,SE,144,7.0,-999.0,-999,0.00,,,0.00,,2013-08-06 00:24:00,
2013-08-05 19:37:00,76.0,-99.9,-100.00,SE,137,5.0,-999.0,-999,0.00,,,0.00,,2013-08-06 00:37:00,
2013-08-05 19:48:00,76.0,-99.9,-100.00,SE,137,5.0,-999.0,-999,0.00,,,0.00,,2013-08-06 00:48:00,
2013-08-05 19:57:00,76.0,-99.9,-100.00,SE,137,5.0,-999.0,-999,0.00,,,0.00,,2013-08-06 00:57:00,
2013-08-05 20:00:00,76.0,-99.9,-100.00,SE,133,4.0,-999.0,-999,0.00,,,0.00,,2013-08-06 01:00:00,
2013-08-05 20:13:00,76.0,-99.9,-100.00,SE,142,2.0,-999.0,-999,0.00,,,0.00,,2013-08-06 01:13:00,
2013-08-05 20:28:00,76.0,-99.9,-100.00,SE,142,2.0,-999.0,-999,0.00,,,0.00,,2013-08-06 01:28:00,
2013-08-05 20:54:00,76.0,-99.9,-100.00,SE,133,4.0,-999.0,-999,0.00,,,0.00,,2013-08-06 01:54:00,
2013-08-05 21:12:00,75.0,-99.9,-100.00,South,188,1.0,-999.0,-999,0.00,,,0.00,,2013-08-06 02:12:00,
2013-08-05 21:27:00,75.0,-99.9,-100.00,South,188,1.0,-999.0,-999,0.00,,,0.00,,2013-08-06 02:27:00,
2013-08-05 21:33:00,75.0,-99.9,-100.00,SSW,202,1.0,-999.0,-999,0.00,,,0.00,,2013-08-06 02:33:00,
2013-08-05 21:51:00,75.0,-99.9,-100.00,SSW,202,1.0,-999.0,-999,0.00,,,0.00,,2013-08-06 02:51:00,
2013-08-05 22:02:00,74.0,-99.9,-100.00,SSW,210,1.0,-999.0,-999,0.00,,,0.00,,2013-08-06 03:02:00,
2013-08-05 22:19:00,74.0,-99.9,-100.00,SSW,210,1.0,-999.0,-999,0.00,,,0.00,,2013-08-06 03:19:00,
2013-08-05 22:27:00,74.0,-99.9,-100.00,SSW,210,1.0,-999.0,-999,0.00,,,0.00,,2013-08-06 03:27:00,
2013-08-05 22:35:00,75.0,-99.9,-100.00,ESE,106,1.0,-999.0,-999,0.00,,,0.00,,2013-08-06 03:35:00,
2013-08-05 22:46:00,75.0,-99.9,-100.00,ESE,106,1.0,-999.0,-999,0.00,,,0.00,,2013-08-06 03:46:00,
2013-08-05 22:53:00,75.0,-99.9,-100.00,ESE,106,1.0,-999.0,-999,0.00,,,0.00,,2013-08-06 03:53:00,
2013-08-05 23:12:00,74.0,-99.9,-100.00,SSE,166,5.0,-999.0,-999,0.00,,,0.00,,2013-08-06 04:12:00,
2013-08-05 23:22:00,74.0,-99.9,-100.00,SSE,166,5.0,-999.0,-999,0.00,,,0.00,,2013-08-06 04:22:00,
2013-08-05 23:33:00,73.0,-99.9,-100.00,SSE,162,4.0,-999.0,-999,0.00,,,0.00,,2013-08-06 04:33:00,
2013-08-05 23:44:00,73.0,-99.9,-100.00,SSE,162,4.0,-999.0,-999,0.00,,,0.00,,2013-08-06 04:44:00,
2013-08-05 23:54:00,73.0,-99.9,-100.00,SSE,162,4.0,-999.0,-999,0.00,,,0.00,,2013-08-06 04:54:00,